Regional Weather Roundup
Issued by NWS Columbia, SC

Home | Current Version | Previous Version | Text Only | Print | Product List | Glossary On
Versions: 1 2 3 4 5 6 7 8 9 10 11 12 13 14 15 16 17 18 19 20 21 22 23 24 25 26 27 28 29 30 31 32 33 34 35 36 37 38 39 40 41 42 43 44 45 46 47 48 49 50
000
ASUS42 KCAE 300310
RWRCAE
REGIONAL WEATHER ROUNDUP
NATIONAL WEATHER SERVICE COLUMBIA SC
1100 PM EDT SUN MAR 29 2015

NOTE: "FAIR" INDICATES FEW OR NO CLOUDS BELOW 12,000 FEET WITH NO
SIGNIFICANT WEATHER AND/OR OBSTRUCTIONS TO VISIBILITY.

NOT ALL STATIONS ARE QUALITY CONTROLLED BY THE NATIONAL
WEATHER SERVICE. USE DATA WITH CAUTION...ESPECIALLY
DEWPOINT OBSERVATIONS.

SCZ001>056-GAZ040-063>065-077-300400-
...UPSTATE SOUTH CAROLINA...

CITY           SKY/WX    TMP DP  RH WIND       PRES   REMARKS
ANDERSON       MOCLDY    47  24  40 S3        30.25F
LIBERTY        PTCLDY    43  25  48 SW5       30.24F
SPARTANBURG    CLEAR     46  19  34 CALM      30.24F
CLEMSON        CLOUDY    51  25  36 CALM      30.25F
GREENVILLE     CLEAR     47  16  29 S7        30.25F
GREENWOOD      CLEAR     44  20  38 S7        30.28F
GREER          CLEAR     46  18  32 SW9       30.23F
ROCK HILL      CLEAR     42  19  39 S7        30.26S
CHESTER        CLEAR     43  19  39 S6        30.27S
LAURENS        CLEAR     43  30  61 S6        30.26F


...CENTRAL SOUTH CAROLINA...

CITY           SKY/WX    TMP DP  RH WIND       PRES   REMARKS
COLUMBIA APT   CLEAR     42  26  53 CALM      30.30S
COLUMBIA OWENS CLEAR     42  28  57 CALM      30.31F
DARLINGTON     CLEAR     39  23  52 S5        30.31F
FLORENCE       CLEAR     41  22  46 S7        30.31S
MCENTIRE ANGB  CLEAR     37  30  75 SE2       30.30F
ORANGEBURG     CLEAR     42  28  57 S7        30.32R
SUMTER SHAW    CLEAR     40  26  56 SW3       30.29S
NEWBERRY       CLEAR    N/A N/A N/A S5        30.30F
AIKEN          FAIR      41  21  45 S6        30.33S
BARNWELL       FAIR      48  32  53 S7        30.32S
MANNING        FLURRIES  34  27  75 CALM      30.33R
CAMDEN         FAIR      41  23  48 CALM      30.30F
LANCASTER      CLEAR     41  18  38 S5        30.27F
WINNSBORO      CLEAR     43  23  45 S7        30.28S


...EASTERN AND COASTAL SOUTH CAROLINA...

CITY           SKY/WX    TMP DP  RH WIND       PRES   REMARKS
MYRTLE BEACH   CLEAR     39  32  75 SW3       30.35F
N MYRTLE BCH   CLEAR     44  31  60 SW6       30.32F
CONWAY         FAIR      36  34  93 CALM      30.33F
MARION         FAIR      41  32  70 S6        30.33S
HARTSVILLE     FAIR      39  21  48 S3        30.29F
FLORENCE       CLEAR     41  22  46 S7        30.31S
DARLINGTON     CLEAR     39  23  52 S5        30.31F
CHARLESTON APT CLEAR     44  33  65 S3        30.33F
MOUNT PLEASANT LGT RAIN  39  36  87 CALM      30.34F
WALTERBORO     CLEAR     41  34  75 CALM      30.35R
BEAUFORT       CLEAR     44  35  70 CALM      30.34F


...EASTERN GEORGIA...

CITY           SKY/WX    TMP DP  RH WIND       PRES   REMARKS
AUGUSTA BUSH F CLEAR     38  24  57 CALM      30.30F
AUGUSTA DANIEL CLEAR     51  18  27 S5        30.29F
THOMSON        CLEAR     45  32  60 CALM      30.33S
WASHINGTON     FAIR      45  36  70 S5        30.27F
CLAXTON        FAIR      46  36  66 CALM      30.35R
SYLVANIA       CLEAR     46  35  65 S3        30.34S
STATESBORO     CLEAR     46  35  65 S6        30.34S
SAVANNAH       CLEAR     43  32  65 CALM      30.35F


...SOUTHERN NORTH CAROLINA...

CITY           SKY/WX    TMP DP  RH WIND       PRES   REMARKS
CHARLOTTE      PTCLDY    44  16  32 S7        30.25F
MONROE         CLEAR     44  16  32 S7        30.25F
WADESBORO      CLEAR     44  14  29 S5        30.27F
ROCKINGHAM       N/A     42  17  35 S6        30.28S
RUTHERFORDTON  CLEAR     44  15  31 S3        30.23S
ASHEVILLE      CLEAR     43  16  33 VRB6      30.20S

$$


USA.gov is the U.S. government's official web portal to all federal, state and local government web resources and services.